Location: Newark
(16.3678°N, 77.8722°E)
Time: 14:00:20
(UTC+00:00)

Tiros 1 - Pass Details

Date: 11 December 2019
Orbit: 630 x 664 km, 48.4° (Epoch: 16 January)

Event Time Altitude Azimuth Distance (km) Brightness Sun altitude
Rises 23:53:55 0° 269° (W) 2,970 - -17.1°
Reaches altitude 10° 23:58:08 10° 304° (NW) 2,050 - -16.1°
Maximum altitude 23:59:27 11° 321° (NW) 1,978 - -15.8°
Drops below altitude 10° 00:00:46 10° 337° (NNW) 2,044 - -15.5°
Exits shadow 00:01:27 - 345° (NNW) 2,128 9.5 -15.4°
Sets 00:04:58 0° 13° (NNE) 2,944 10.5 -14.6°
